Monte Scuro, Italy

8:20 AM CEST on June 24, 2017 (GMT +0200)
Monte Scuro

Weather History for LIBQ - January, 2013

Change the Weather History Date:

Tuesday, January 8, 2013

  Actual Average Record
Temperature  
Mean Temperature 30 °F -  
Max Temperature 34 °F 36 °F 50 °F (2001)
Min Temperature 26 °F 28 °F 7 °F (2017)
Degree Days  
Heating Degree Days 35    
Moisture  
Dew Point 26 °F    
Average Humidity 83    
Maximum Humidity 100    
Minimum Humidity 45    
Precipitation  
Precipitation 0.00 in 0.12 in - ()
Sea Level Pressure  
Sea Level Pressure 30.05 in    
Wind  
Wind Speed 11 mph ()    
Max Wind Speed 23 mph    
Max Gust Speed -    
Visibility 7.0 miles    
Events Fog    
Averages and records for this station are not official NWS values.
T = Trace of Precipitation, MM = Missing Value Source: Averaged Metar Reports

Daily Weather History Graph

Daily Weather History Graph

Search for Another Location

Airport or City:

Trip Planner

Search our weather history database for the weather conditions in past years. The results will help you decide how hot, cold, wet, or windy it might be!

Date:

Astronomy

Jan. 08, 2013 Rise Set
Actual Time 7:14 AM CET 4:48 PM CET
Civil Twilight 6:44 AM CET 5:18 PM CET
Nautical Twilight 6:11 AM CET 5:51 PM CET
Astronomical Twilight 5:38 AM CET 6:23 PM CET
Moon 3:27 AM CET (1/8) 1:34 PM CET (1/8)
Length of Visible Light 10h 33m
Length of Day
9h 33m
Waning Crescent, 16% of the Moon is Illuminated
Jan 8
Waning Crescent
Jan 11
New
Jan 19
First Quarter
Jan 27
Full
Feb 3
Last Quarter

Hourly Weather History & Observations

Time (CET) Temp. Windchill Dew Point Humidity Pressure Visibility Wind Dir Wind Speed Gust Speed Precip Events Conditions
12:55 AM 30.2 °F 18.5 °F 26.6 °F 86% 30.01 in 6.2 mi NNE 17.3 mph - N/A   Scattered Clouds
1:00 AM 29 °F - 27 °F 89%  in 12 mi NNE 17.3 mph - -   Partly Cloudy
1:55 AM 28.4 °F 16.2 °F 24.8 °F 86% 30.01 in - NNE 17.3 mph - N/A   Clear
2:55 AM 28.4 °F 15.8 °F 23.0 °F 80% 30.01 in - NNE 18.4 mph - N/A   Clear
3:55 AM 28.4 °F 15.1 °F 23.0 °F 80% 30.04 in - NNE 20.7 mph - N/A   Clear
4:00 AM 28 °F - 23 °F 72%  in 12 mi NNE 20.7 mph - -  
4:55 AM 28.4 °F 14.4 °F 23.0 °F 80% 30.04 in - NNE 23.0 mph - N/A   Clear
5:55 AM 26.6 °F 17.5 °F 24.8 °F 93% 30.01 in - NNE 9.2 mph - N/A   Clear
6:55 AM 26.6 °F 17.5 °F 21.2 °F 80% 30.01 in - NNE 9.2 mph - N/A   Clear
7:55 AM 26.6 °F 16.8 °F 21.2 °F 80% 30.04 in - NNE 10.4 mph - N/A   Clear
8:55 AM 28.4 °F 19.1 °F 15.8 °F 59% 30.04 in - NNE 10.4 mph - N/A   Clear
9:55 AM 30.2 °F 20.8 °F 17.6 °F 60% 30.06 in - NNE 11.5 mph - N/A   Clear
10:00 AM 30 °F - 17 °F 45%  in 19 mi NNE 11.5 mph - -  
10:55 AM 30.2 °F 23.4 °F 21.2 °F 69% 30.06 in - NNE 6.9 mph - N/A   Clear
11:55 AM 32.0 °F 26.4 °F 23.0 °F 69% 30.09 in - NNE 5.8 mph - N/A   Clear
12:55 PM 32.0 °F 27.5 °F 24.8 °F 75% 30.09 in - North 4.6 mph - N/A   Clear
1:00 PM 33 °F - 25 °F 62%  in 19 mi North 4.6 mph - -  
1:55 PM 33.8 °F 27.7 °F 26.6 °F 75% 30.06 in 6.2 mi North 6.9 mph - N/A   Scattered Clouds
2:55 PM 35.6 °F 31.7 °F 26.6 °F 70% 30.06 in - North 4.6 mph - N/A   Clear
3:55 PM 33.8 °F 29.6 °F 28.4 °F 81% 30.06 in - North 4.6 mph - N/A   Clear
4:00 PM 33 °F - 28 °F 77%  in 12 mi North 4.6 mph - -  
4:55 PM 32.0 °F 25.6 °F 32.0 °F 100% 30.06 in 6.2 mi North 6.9 mph - N/A   Partly Cloudy
5:55 PM 30.2 °F 23.4 °F 30.2 °F 100% 30.06 in 5.0 mi North 6.9 mph - N/A   Scattered Clouds
6:55 PM 32.0 °F 25.6 °F 32.0 °F 100% 30.06 in 0.0 mi North 6.9 mph - N/A Fog Fog
7:00 PM 31 °F - 31 °F 100%  in 0 mi North 6.9 mph - - Fog Heavy Fog
7:55 PM 32.0 °F 25.6 °F 32.0 °F 100% 30.06 in 0.0 mi North 6.9 mph - N/A Fog Fog
8:55 PM 32.0 °F 27.5 °F 32.0 °F 100% 30.06 in 3.1 mi NNE 4.6 mph - N/A   Mostly Cloudy
9:55 PM 32.0 °F 27.5 °F 32.0 °F 100% 30.06 in 6.2 mi NE 4.6 mph - N/A   Mostly Cloudy
10:00 PM 32 °F - 32 °F 100%  in 6 mi NE 4.6 mph - -   Partly Cloudy
10:55 PM 32.0 °F 27.5 °F 32.0 °F 100% 30.06 in 6.2 mi NE 4.6 mph - N/A   Scattered Clouds
11:55 PM 32.0 °F 27.5 °F 32.0 °F 100% 30.06 in 0.0 mi NNE 4.6 mph - N/A Fog Fog